Location: Mococo
(38.0255°N, 122.1161°W)
Time: 07:14:07
(UTC+00:00)

Cosmos 1908 Rocket - Pass Details

Date: 13 February 2026
Orbit: 600 x 624 km, 82.5° (Epoch: 9 March)

Event Time Altitude Azimuth Distance (km) Brightness Sun altitude
Rises 13:28:34 0° 189° (S) 2,845 6.9 -18.7°
Reaches altitude 10° 13:30:45 10° 190° (S) 1,950 6.0 -18.3°
Maximum altitude 13:35:04 78° 276° (W) 628 3.4 -17.4°
Drops below altitude 10° 13:39:27 10° 4° (N) 1,980 6.2 -16.5°
Sets 13:41:42 0° 6° (N) 2,893 7.0 -16.1°
